[[{"header":{"parameterUnit":"m.s-1","parameterCategory":2,"la1":30.2991,"la2":30.254,"lo1":-89.0895,"lo2":-89.0444,"dy":0.0017,"dx":0.0017,"nx":28,"ny":28,"refTime":"2025-04-11T03:00:00:Z","depth":"0","parameterNumber":2,"parameterNumberName":"U-component_of_CURRENTS"},"data":[0,0,0,0,0,0,0,0,0,0,0,0,0,0,0,0,0,0,0,0,0,0,0,0,0,0,0,0,0,0,0,0,0,0,0,0,0,0,0,0,0,0,0,0,0,0,0,0,0,0,0,0,0,0,0,0,0,0,0.3276,0.3279,0,0.3498,0.3499,0.3501,0.3558,0.3558,0.3557,0.3556,0.3623,0.3625,0.3627,0,0,0,0,0,0,0,0,0,0,0,0,0,0.3093,0.3094,0.3275,0.3279,0.3283,0.3497,0.35,0.3502,0.3559,0.3558,0.3557,0.3556,0.3622,0.3625,0.3628,0,0,0,0,0,0,0,0,0,0,0,0,0,0.3222,0.3095,0.3275,0.3342,0.3351,0.3497,0.35,0.3502,0.3559,0.3558,0.3557,0.3556,0.3621,0.3624,0.3628,0.367,0,0,0.3639,0.3641,0,0,0,0,0,0,0,0,0.3214,0.3227,0.3329,0.3338,0.3348,0.3506,0.3461,0.3554,0.3559,0.3472,0.3556,0.3555,0.3575,0.3582,0.3618,0.3674,0.3676,0.3639,0.3642,0.3643,0.3644,0,0,0,0,0,0,0,0.3205,0.3219,0.3356,0.3333,0.3345,0.3428,0.3442,0.3479,0.3517,0.3479,0.3486,0.3523,0.3578,0.3614,0.3619,0.3677,0.3639,0.3642,0.3645,0.3646,0.3765,0.3765,0,0,0,0,0,0,0.3184,0.321,0.3349,0.3363,0.3286,0.3432,0.3448,0.345,0.3521,0.3534,0.3524,0.3525,0.3609,0.3615,0.3622,0.3676,0.3643,0.3646,0.3648,0.3764,0.3765,0.3766,0,0,0,0,0,0,0.3179,0.3193,0.334,0.33,0.3325,0.3435,0.3438,0.3455,0.3501,0.3558,0.3566,0.3554,0.3608,0.3617,0.3668,0.3678,0.3648,0.3651,0.3762,0.3764,0.3765,0.3783,0,0,0,0,0,0,0.3172,0.3188,0.3186,0.3297,0.3327,0.3428,0.3441,0.3461,0.3529,0.3533,0.3586,0.3591,0.3608,0.3662,0.3671,0.3682,0.3654,0.3761,0.3763,0.3765,0.3781,0.3785,0.3788,0,0,0,0,0,0.3164,0.3166,0.3183,0.3202,0.3317,0.3431,0.3453,0.3524,0.3531,0.3558,0.3596,0.359,0.3679,0.3667,0.3677,0.3689,0.376,0.3763,0.3765,0.3779,0.3784,0.3788,0,0,0,0,0,0,0.3083,0.3177,0.3197,0.3224,0.3322,0.3443,0.348,0.3531,0.3588,0.3577,0.3617,0.3626,0.3672,0.3683,0.3668,0.3728,0.3713,0.3718,0.3721,0.3726,0.3729,0.374,0.3657,0,0,0,0,0,0.3064,0.3085,0.3199,0.3221,0.3265,0.3371,0.3427,0.3477,0.3549,0.3574,0.3616,0.365,0.3692,0.3709,0.3744,0.3785,0.3804,0.3795,0.3798,0.3801,0.3817,0.3857,0.3866,0.3773,0.3773,0.3773,0,0,0.3046,0.3096,0.3111,0.3207,0.3278,0.3363,0.3399,0.348,0.3544,0.3569,0.3641,0.3668,0.3707,0.3754,0.3773,0.3762,0.3837,0.3804,0.3806,0.3821,0.386,0.3869,0.3877,0.3775,0.3774,0.3774,0,0,0.3041,0.3055,0.309,0.3169,0.3281,0.3348,0.3373,0.3494,0.3533,0.3621,0.3643,0.3685,0.3755,0.3785,0.3809,0.3855,0.3858,0.3851,0.3876,0.3915,0.3923,0.393,0.3964,0.3974,0.3848,0.3848,0.3848,0,0.3021,0.3071,0.3124,0.3193,0.3256,0.3342,0.3413,0.3481,0.3602,0.363,0.3638,0.3748,0.3776,0.3837,0.3856,0.3863,0.3883,0.3856,0.3919,0.3927,0.3934,0.3967,0.3979,0.3849,0.3849,0.3849,0.3849,0,0.3069,0.3114,0.3142,0.3244,0.3311,0.3383,0.3486,0.3538,0.3588,0.3659,0.3729,0.3782,0.3843,0.3854,0.388,0.3937,0.3935,0.3921,0.3907,0.3945,0.3977,0.3988,0.385,0.385,0.385,0.3849,0,0,0.3021,0.3151,0.3167,0.3205,0.3339,0.3392,0.3479,0.3582,0.362,0.3718,0.3777,0.3863,0.3882,0.3912,0.3932,0.3973,0.4044,0.3973,0.3974,0.4005,0.4131,0.4031,0.4033,0.4039,0.4041,0.4043,0.4133,0,0.3054,0.3162,0.3225,0.3317,0.3374,0.3452,0.3521,0.3606,0.3675,0.3746,0.381,0.3875,0.3906,0.3924,0.3978,0.4037,0.4075,0.4022,0.4093,0.4096,0.4,0.4043,0.3875,0.3932,0.4144,0.4146,0.4147,0,0.3084,0.3155,0.3242,0.3325,0.3354,0.341,0.3487,0.3565,0.3676,0.373,0.3812,0.3868,0.3971,0.3967,0.4107,0.4072,0.4109,0.4144,0.4148,0.4059,0.4016,0.393,0.3944,0.3926,0.4164,0.4163,0.4161,0,0.3007,0.3147,0.3196,0.324,0.3364,0.3384,0.3444,0.3546,0.3593,0.3715,0.3756,0.3888,0.3952,0.4039,0.4146,0.413,0.4276,0.4253,0.4195,0.4189,0.4062,0.404,0.4064,0.4327,0.4327,0.4326,0.4326,0,0.2997,0.3031,0.3156,0.3185,0.3225,0.3318,0.3353,0.3437,0.3538,0.3583,0.373,0.3784,0.3974,0.408,0.4157,0.4225,0.4291,0.4217,0.4209,0.4061,0.4039,0.4029,0.402,0.433,0.4329,0.4328,0.4328,0,0.2882,0.2979,0.303,0.3153,0.3182,0.3198,0.3294,0.3318,0.3436,0.3498,0.3538,0.3739,0.3888,0.4047,0.4206,0.4222,0.4193,0.4289,0.4105,0.4073,0.3959,0.3955,0.3792,0.3695,0.4237,0.4235,0.4233,0,0.2824,0.2849,0.2972,0.2992,0.3037,0.3087,0.3114,0.3249,0.3287,0.3448,0.3468,0.365,0.3737,0.3955,0.4055,0.417,0.4118,0.4053,0.3979,0.3941,0.3934,0.3782,0.3703,0.3831,0.3826,0.3822,0.3819,0,0.2725,0.277,0.2824,0.2858,0.2887,0.2923,0.2981,0.3004,0.3147,0.3196,0.3275,0.3351,0.3588,0.3663,0.3844,0.3889,0.3868,0.397,0.3986,0.3663,0.3446,0.3352,0.3797,0.3785,0.3788,0.3791,0.3792,0.3794,0.2635,0.264,0.2701,0.2705,0.274,0.2732,0.2695,0.2772,0.2793,0.285,0.3021,0.3089,0.3327,0.3554,0.3574,0.3606,0.3604,0.3567,0.3585,0.345,0.328,0.364,0.3575,0.3578,0.3579,0.3581,0.3583,0,0.2504,0.2523,0.2537,0.2541,0.2485,0.2553,0.257,0.2518,0.2474,0.2629,0.2668,0.2861,0.2972,0.3184,0.3337,0.3274,0.3115,0.3251,0.3043,0.3001,0.3389,0.3298,0.3102,0.3102,0.3102,0.3102,0.3102,0.3102,0.2441,0.24,0.2399,0.2275,0.2255,0.2147,0.211,0.2092,0.2173,0.2238,0.2353,0.2508,0.291,0.3168,0.3202,0.3115,0.2955,0.2789,0.2849,0.3204,0.3236,0.3267,0.3182,0.2965,0.2965,0.2309,0.2304,0.2301]},{"header":{"parameterUnit":"m.s-1","parameterCategory":2,"la1":30.2991,"la2":30.254,"lo1":-89.0895,"lo2":-89.0444,"dy":0.0017,"dx":0.0017,"nx":28,"ny":28,"refTime":"2025-04-11T03:00:00:Z","depth":"0","parameterNumber":3,"parameterNumberName":"V-component_of_CURRENTS"},"data":[0,0,0,0,0,0,0,0,0,0,0,0,0,0,0,0,0,0,0,0,0,0,0,0,0,0,0,0,0,0,0,0,0,0,0,0,0,0,0,0,0,0,0,0,0,0,0,0,0,0,0,0,0,0,0,0,0,0,-0.0121,-0.0122,0,-0.0208,-0.0208,-0.0209,-0.0242,-0.0243,-0.0243,-0.0243,-0.0297,-0.0299,-0.03,0,0,0,0,0,0,0,0,0,0,0,0,0,-0.0046,-0.0046,-0.0121,-0.0122,-0.0124,-0.0208,-0.0208,-0.0209,-0.0242,-0.0243,-0.0243,-0.0243,-0.0297,-0.0298,-0.03,0,0,0,0,0,0,0,0,0,0,0,0,0,-0.0095,-0.0047,-0.0121,-0.0154,-0.0159,-0.0207,-0.0208,-0.0209,-0.0242,-0.0243,-0.0243,-0.0243,-0.0296,-0.0298,-0.03,-0.0305,0,0,-0.0306,-0.0307,0,0,0,0,0,0,0,0,-0.0092,-0.0097,-0.0148,-0.0152,-0.0157,-0.0219,-0.0202,-0.0242,-0.0242,-0.0205,-0.0243,-0.0243,-0.0271,-0.0275,-0.0284,-0.0308,-0.031,-0.0306,-0.0307,-0.0308,-0.0309,0,0,0,0,0,0,0,-0.0089,-0.0094,-0.015,-0.015,-0.0155,-0.0187,-0.0193,-0.021,-0.0231,-0.0208,-0.0212,-0.023,-0.0273,-0.0282,-0.0286,-0.0311,-0.0306,-0.0308,-0.0309,-0.031,-0.0322,-0.0322,0,0,0,0,0,0,-0.0085,-0.0091,-0.0148,-0.0153,-0.013,-0.0188,-0.0195,-0.0195,-0.0232,-0.0239,-0.023,-0.0231,-0.0279,-0.0283,-0.0288,-0.0265,-0.0308,-0.031,-0.0311,-0.0323,-0.0322,-0.0321,0,0,0,0,0,0,-0.0082,-0.0088,-0.0144,-0.0129,-0.0139,-0.0189,-0.0189,-0.0196,-0.0205,-0.0249,-0.0255,-0.0231,-0.0279,-0.0285,-0.0299,-0.0269,-0.0311,-0.0312,-0.0324,-0.0323,-0.0322,-0.024,0,0,0,0,0,0,-0.0079,-0.0086,-0.0081,-0.0128,-0.014,-0.0166,-0.0189,-0.0198,-0.0218,-0.0221,-0.0252,-0.0258,-0.028,-0.0296,-0.03,-0.0272,-0.0314,-0.0325,-0.0323,-0.0322,-0.0243,-0.0236,-0.0229,0,0,0,0,0,-0.0076,-0.0067,-0.0079,-0.0087,-0.0131,-0.0166,-0.0174,-0.0208,-0.0218,-0.0217,-0.0239,-0.0257,-0.0289,-0.0297,-0.0303,-0.0274,-0.0326,-0.0324,-0.0322,-0.0247,-0.0237,-0.023,0,0,0,0,0,0,-0.0031,-0.0072,-0.0086,-0.0089,-0.0123,-0.0174,-0.0182,-0.0203,-0.022,-0.0221,-0.0253,-0.026,-0.0258,-0.0282,-0.0289,-0.0274,-0.0308,-0.0307,-0.0248,-0.024,-0.0233,-0.0205,-0.0315,0,0,0,0,0,-0.0019,-0.0021,-0.0069,-0.0071,-0.0087,-0.0131,-0.0149,-0.0172,-0.0201,-0.0209,-0.0232,-0.025,-0.0256,-0.0261,-0.0277,-0.0273,-0.0295,-0.0257,-0.025,-0.0244,-0.0226,-0.0242,-0.0235,-0.0315,-0.0315,-0.0315,0,0,-0.0005,-0.0027,-0.003,-0.0062,-0.009,-0.0099,-0.0141,-0.0165,-0.0159,-0.0211,-0.0205,-0.023,-0.0251,-0.0243,-0.0243,-0.0258,-0.0233,-0.0241,-0.0236,-0.0221,-0.024,-0.0232,-0.0225,-0.0314,-0.0314,-0.0315,0,0,0.0019,0.0005,0.0008,-0.001,-0.0052,-0.0077,-0.008,-0.0125,-0.0131,-0.0142,-0.0164,-0.017,-0.0196,-0.0194,-0.0197,-0.0161,-0.0198,-0.0168,-0.0106,-0.0123,-0.0116,-0.011,-0.013,-0.0127,-0.0162,-0.0162,-0.0161,0,0.0031,0.0038,0.0003,0.0003,-0.0003,-0.0059,-0.005,-0.0065,-0.0105,-0.0091,-0.013,-0.0139,-0.0166,-0.0128,-0.0118,-0.0142,-0.0164,-0.0135,-0.0112,-0.0107,-0.0103,-0.0125,-0.0122,-0.0157,-0.0158,-0.0158,-0.0159,0,0.0053,0.0064,0.0065,0.0055,0.0049,0.0042,0.0018,0.0022,0.0001,-0.0014,0.0001,-0.0043,-0.0044,-0.0052,-0.0076,-0.0042,-0.0072,-0.0104,-0.013,-0.0089,-0.0116,-0.0115,-0.0151,-0.0153,-0.0154,-0.0155,0,0,0.0061,0.0077,0.0076,0.0101,0.0079,0.008,0.0106,0.0117,0.016,0.0106,0.0153,0.0123,0.0091,0.0086,0.0053,0.0041,0.0044,-0.0012,-0.0015,-0.0025,0.0005,-0.0014,-0.0015,0.0012,0.0013,0.0014,-0.0027,0,0.0083,0.0115,0.0116,0.016,0.0179,0.0172,0.0216,0.0227,0.0225,0.0255,0.0213,0.0225,0.0146,0.0149,0.0123,0.0074,0.0052,0.0058,-0.0039,-0.0041,-0.0057,-0.0012,-0.0016,-0.0052,-0.0026,-0.0026,-0.0026,0,0.0109,0.0126,0.0175,0.0248,0.0258,0.0283,0.0359,0.0387,0.042,0.0422,0.0412,0.0369,0.0352,0.0267,0.0188,0.0193,0.0108,0.0053,0.0049,0.0008,-0.0057,-0.009,-0.0052,-0.0215,-0.0025,-0.0025,-0.0025,0,0.0144,0.0184,0.0234,0.0247,0.0303,0.0349,0.0384,0.0439,0.0503,0.052,0.0558,0.0505,0.0491,0.0381,0.0241,0.0217,0.0148,0.0095,-0.0003,-0.0007,-0.0038,-0.0045,-0.016,0.0035,0.0035,0.0035,0.0035,0,0.0185,0.0229,0.0257,0.0282,0.0379,0.0398,0.0509,0.055,0.0621,0.0705,0.0637,0.068,0.0517,0.0447,0.0298,0.0159,0.0179,0.0026,-0.0009,-0.0011,-0.0014,-0.0182,-0.0269,0.0034,0.0034,0.0034,0.0035,0,0.0236,0.025,0.0315,0.0369,0.0403,0.0471,0.0593,0.0682,0.0726,0.0831,0.0838,0.0821,0.073,0.0563,0.04,0.0249,0.0018,0.0044,0.0051,0.0019,-0.0221,-0.0303,-0.0423,-0.0495,-0.0057,-0.0057,-0.0058,0,0.0275,0.0302,0.0372,0.0439,0.0471,0.0567,0.0661,0.0731,0.0827,0.0916,0.0982,0.0932,0.0908,0.0672,0.0412,0.0167,0.0008,-0.0008,-0.0054,-0.0216,-0.0333,-0.0382,-0.0439,-0.0072,-0.0072,-0.0073,-0.0073,0,0.0335,0.0348,0.0402,0.053,0.0628,0.0739,0.0861,0.0952,0.1035,0.1109,0.1193,0.1176,0.0959,0.0729,0.0401,0.0213,-0.0113,-0.0024,-0.0194,-0.0344,-0.0402,-0.0494,-0.0072,-0.0077,-0.0077,-0.0077,-0.0076,-0.0076,0.0385,0.0441,0.0517,0.0653,0.0765,0.0909,0.1007,0.112,0.1256,0.138,0.1347,0.1369,0.1026,0.0595,0.0312,-0.0156,-0.0151,-0.0317,-0.0399,-0.043,-0.0507,-0.0088,-0.0133,-0.0133,-0.0133,-0.0133,-0.0133,0,0.0461,0.0534,0.0652,0.0804,0.0933,0.0974,0.1153,0.1249,0.1384,0.1504,0.1548,0.1446,0.0991,0.0561,-0.0063,-0.0449,-0.059,-0.0667,-0.0753,-0.0791,-0.0424,-0.0432,-0.0541,-0.0541,-0.054,-0.054,-0.054,-0.054,0.0509,0.0634,0.0699,0.0926,0.1028,0.1193,0.1287,0.1419,0.1545,0.1716,0.1789,0.1816,0.1543,0.0272,-0.0548,-0.0765,-0.1034,-0.1119,-0.1233,-0.1012,-0.0986,-0.0962,-0.0991,-0.1215,-0.1216,-0.156,-0.1564,-0.1567]}],[{"header":{"parameterUnit":"m.s-1","parameterCategory":2,"la1":30.2991,"la2":30.254,"lo1":-89.0895,"lo2":-89.0444,"dy":0.0017,"dx":0.0017,"nx":28,"ny":28,"refTime":"2025-04-11T03:00:00:Z","depth":"2","parameterNumber":2,"parameterNumberName":"U-component_of_CURRENTS"},"data":[0,0,0,0,0,0,0,0,0,0,0,0,0,0,0,0,0,0,0,0,0,0,0,0,0,0,0,0,0,0,0,0,0,0,0,0,0,0,0,0,0,0,0,0,0,0,0,0,0,0,0,0,0,0,0,0,0,0,0.2672,0.2673,0,0.2697,0.2696,0.2694,0.2604,0.2603,0.2602,0.2601,0.2832,0.2839,0.2846,0,0,0,0,0,0,0,0,0,0,0,0,0,0.2684,0.2682,0.2672,0.2674,0.2676,0.2697,0.2695,0.2694,0.2604,0.2603,0.2602,0.2601,0.283,0.2838,0.2847,0,0,0,0,0,0,0,0,0,0,0,0,0,0.2673,0.2681,0.2671,0.2647,0.2647,0.2697,0.2695,0.2694,0.2604,0.2603,0.2601,0.26,0.2827,0.2837,0.2848,0.2942,0,0,0.288,0.2885,0,0,0,0,0,0,0,0,0.2673,0.267,0.2649,0.2649,0.2649,0.2662,0.2786,0.2794,0.2605,0.2601,0.2601,0.2599,0.2808,0.282,0.2798,0.2953,0.2963,0.2881,0.2887,0.2892,0.2895,0,0,0,0,0,0,0,0.2674,0.2669,0.2662,0.2652,0.2652,0.2684,0.2677,0.2785,0.2701,0.2601,0.2599,0.2632,0.2806,0.2788,0.2804,0.2967,0.2881,0.289,0.2897,0.2901,0.3278,0.3282,0,0,0,0,0,0,0.2703,0.2669,0.2662,0.2665,0.2679,0.2686,0.2678,0.2644,0.2696,0.2706,0.2634,0.2628,0.277,0.2791,0.2812,0.2986,0.2892,0.2902,0.2908,0.3275,0.3279,0.3283,0,0,0,0,0,0,0.2701,0.2699,0.2661,0.2687,0.2687,0.2688,0.2651,0.2646,0.2661,0.2722,0.2731,0.266,0.277,0.2797,0.2899,0.2993,0.2907,0.2916,0.327,0.3276,0.3281,0.3299,0,0,0,0,0,0,0.27,0.2696,0.2678,0.2687,0.2687,0.2704,0.2654,0.2648,0.2691,0.2684,0.275,0.2765,0.2771,0.2883,0.291,0.3006,0.2924,0.3266,0.3273,0.328,0.3294,0.3304,0.3313,0,0,0,0,0,0.2699,0.2666,0.2675,0.2677,0.266,0.2708,0.2709,0.2695,0.2695,0.2701,0.273,0.2765,0.2947,0.2893,0.2924,0.3026,0.3262,0.3271,0.3279,0.3289,0.3302,0.3313,0,0,0,0,0,0,0.2645,0.2657,0.2665,0.2632,0.2688,0.27,0.2714,0.2732,0.2755,0.2766,0.2798,0.2816,0.2945,0.2992,0.2931,0.3157,0.3121,0.3136,0.3118,0.3132,0.3141,0.3154,0.2933,0,0,0,0,0,0.2639,0.2607,0.2666,0.2639,0.2682,0.2717,0.274,0.2754,0.2789,0.2795,0.2824,0.2899,0.3002,0.3064,0.3135,0.3268,0.3281,0.3361,0.3371,0.3379,0.3413,0.3456,0.3471,0.331,0.331,0.331,0,0,0.2622,0.2617,0.2607,0.263,0.2667,0.2752,0.272,0.2781,0.2834,0.2833,0.2883,0.2936,0.3043,0.3152,0.3222,0.3207,0.3433,0.3389,0.3395,0.3426,0.3466,0.3481,0.3494,0.3316,0.3315,0.3314,0,0,0.2613,0.2575,0.2594,0.2656,0.2748,0.2776,0.282,0.2867,0.2863,0.2937,0.2964,0.3053,0.3173,0.325,0.3321,0.3451,0.3475,0.3509,0.3583,0.3623,0.3635,0.3646,0.3668,0.3681,0.3521,0.3521,0.3521,0,0.2603,0.2624,0.2616,0.2694,0.2753,0.281,0.2904,0.2931,0.2987,0.301,0.296,0.3145,0.3219,0.3413,0.3447,0.3477,0.3492,0.3517,0.363,0.3642,0.3653,0.3672,0.3686,0.3523,0.3523,0.3523,0.3523,0,0.2666,0.2702,0.273,0.2829,0.2878,0.2966,0.3043,0.3078,0.3084,0.3112,0.3229,0.3277,0.3389,0.345,0.3495,0.3665,0.3646,0.362,0.3582,0.3669,0.3685,0.3699,0.3526,0.3525,0.3525,0.3524,0,0,0.2619,0.2747,0.2772,0.2826,0.2965,0.3,0.311,0.321,0.3265,0.3301,0.3359,0.3529,0.3536,0.3622,0.369,0.375,0.3832,0.3736,0.3737,0.3729,0.3914,0.3696,0.369,0.3814,0.3817,0.382,0.3886,0,0.2698,0.2828,0.2877,0.3009,0.3092,0.316,0.3231,0.3318,0.335,0.3402,0.3495,0.3576,0.3615,0.3661,0.3741,0.3818,0.3875,0.3817,0.3861,0.3863,0.3633,0.3701,0.346,0.3482,0.39,0.3902,0.3904,0,0.2767,0.2846,0.2978,0.3067,0.3109,0.3182,0.3274,0.3348,0.3472,0.3493,0.3607,0.365,0.3821,0.377,0.3949,0.3909,0.3938,0.3961,0.3962,0.3769,0.3671,0.3472,0.3491,0.3927,0.3925,0.3923,0.3922,0,0.2707,0.2891,0.2965,0.3023,0.3164,0.3199,0.3263,0.3376,0.3409,0.3554,0.3576,0.376,0.3819,0.3909,0.3968,0.3973,0.4081,0.4073,0.3907,0.3892,0.3703,0.3663,0.4171,0.4171,0.417,0.417,0.417,0,0.2714,0.2782,0.2945,0.2987,0.3068,0.3158,0.3215,0.3309,0.3415,0.3458,0.3613,0.3658,0.3852,0.3919,0.3982,0.3969,0.4087,0.3941,0.39,0.37,0.3661,0.4065,0.4051,0.4173,0.4172,0.4172,0.4171,0,0.2602,0.2718,0.282,0.2988,0.3027,0.3071,0.3163,0.3199,0.3323,0.3381,0.3422,0.3609,0.3699,0.3821,0.3955,0.3942,0.3967,0.3923,0.3659,0.3584,0.3764,0.3752,0.3788,0.3781,0.3775,0.377,0.3766,0,0.2552,0.2603,0.2788,0.2823,0.289,0.2968,0.3003,0.3141,0.3175,0.3314,0.3327,0.3453,0.3495,0.3598,0.3622,0.3661,0.3799,0.3433,0.3395,0.3771,0.3729,0.3726,0.3722,0.3173,0.3165,0.3158,0.3152,0,0.2491,0.256,0.2635,0.2704,0.2752,0.2806,0.287,0.2888,0.3022,0.3055,0.3098,0.3137,0.3247,0.3181,0.3219,0.3222,0.341,0.3281,0.3768,0.3267,0.3185,0.3145,0.3164,0.3089,0.3095,0.31,0.3103,0.3106,0.2443,0.2463,0.2539,0.2567,0.2615,0.2612,0.2577,0.2642,0.2642,0.2659,0.2804,0.2771,0.2876,0.2785,0.2736,0.274,0.2978,0.292,0.2947,0.298,0.2856,0.2763,0.2566,0.2569,0.2572,0.2575,0.2577,0,0.2353,0.2358,0.2388,0.2403,0.235,0.2431,0.2447,0.2375,0.23,0.2387,0.2383,0.2203,0.2177,0.2292,0.2193,0.2211,0.2258,0.2152,0.2218,0.2282,0.2338,0.2186,0.1717,0.1714,0.1711,0.1708,0,0,0.23,0.2259,0.2244,0.2124,0.2113,0.2005,0.197,0.1914,0.1935,0.1845,0.1823,0.2003,0.2159,0.1855,0.1872,0.1771,0.2008,0.1714,0.2409,0.2547,0.2599,0.2791,0.2626,0,0,0,0,0]},{"header":{"parameterUnit":"m.s-1","parameterCategory":2,"la1":30.2991,"la2":30.254,"lo1":-89.0895,"lo2":-89.0444,"dy":0.0017,"dx":0.0017,"nx":28,"ny":28,"refTime":"2025-04-11T03:00:00:Z","depth":"2","parameterNumber":3,"parameterNumberName":"V-component_of_CURRENTS"},"data":[0,0,0,0,0,0,0,0,0,0,0,0,0,0,0,0,0,0,0,0,0,0,0,0,0,0,0,0,0,0,0,0,0,0,0,0,0,0,0,0,0,0,0,0,0,0,0,0,0,0,0,0,0,0,0,0,0,0,-0.0018,-0.0019,0,-0.0075,-0.0075,-0.0075,-0.0081,-0.0081,-0.0081,-0.0081,-0.019,-0.0192,-0.0195,0,0,0,0,0,0,0,0,0,0,0,0,0,0.0018,0.0019,-0.0018,-0.0019,-0.0021,-0.0075,-0.0075,-0.0075,-0.0081,-0.0081,-0.0081,-0.0081,-0.0189,-0.0192,-0.0196,0,0,0,0,0,0,0,0,0,0,0,0,0,-0.0007,0.0019,-0.0018,-0.0035,-0.0038,-0.0075,-0.0075,-0.0075,-0.0081,-0.0081,-0.0081,-0.0081,-0.0188,-0.0192,-0.0196,-0.0221,0,0,-0.0209,-0.0211,0,0,0,0,0,0,0,0,-0.0005,-0.0007,-0.0031,-0.0034,-0.0037,-0.0077,-0.0103,-0.0129,-0.0081,-0.0057,-0.0081,-0.0081,-0.0162,-0.0168,-0.0168,-0.0226,-0.0231,-0.0209,-0.0212,-0.0214,-0.0215,0,0,0,0,0,0,0,-0.0004,-0.0005,-0.0033,-0.0033,-0.0037,-0.0064,-0.0066,-0.0107,-0.0103,-0.0059,-0.0061,-0.0079,-0.0162,-0.0163,-0.017,-0.0232,-0.0209,-0.0213,-0.0216,-0.0217,-0.0294,-0.0294,0,0,0,0,0,0,-0.0007,-0.0003,-0.0032,-0.0036,-0.0029,-0.0065,-0.0067,-0.0058,-0.0102,-0.011,-0.0079,-0.0079,-0.0156,-0.0165,-0.0174,-0.0179,-0.0214,-0.0218,-0.022,-0.0295,-0.0294,-0.0293,0,0,0,0,0,0,-0.0006,-0.0008,-0.0029,-0.0028,-0.0034,-0.0066,-0.0056,-0.006,-0.0068,-0.0118,-0.0126,-0.0085,-0.0156,-0.0168,-0.02,-0.0185,-0.022,-0.0224,-0.0295,-0.0294,-0.0294,-0.0207,0,0,0,0,0,0,-0.0004,-0.0006,0.0004,-0.0028,-0.0034,-0.0038,-0.0057,-0.0061,-0.0082,-0.0083,-0.0126,-0.0135,-0.0157,-0.0193,-0.0204,-0.0191,-0.0227,-0.0296,-0.0295,-0.0294,-0.021,-0.0203,-0.0197,0,0,0,0,0,-0.0002,0.0013,0.0006,0.0002,-0.0019,-0.0038,-0.0042,-0.0063,-0.0082,-0.0072,-0.0104,-0.0134,-0.0194,-0.0196,-0.0209,-0.0197,-0.0296,-0.0295,-0.0294,-0.0213,-0.0205,-0.0197,0,0,0,0,0,0,0.0037,0.0012,0.0004,0.0013,-0.0008,-0.0042,-0.0047,-0.0067,-0.0083,-0.0094,-0.0134,-0.0144,-0.0164,-0.0198,-0.0199,-0.0216,-0.0249,-0.025,-0.0183,-0.0175,-0.0169,-0.014,-0.0231,0,0,0,0,0,0.0048,0.0059,0.0024,0.0034,0.0018,-0.0017,-0.003,-0.0047,-0.0075,-0.0082,-0.0108,-0.0143,-0.0168,-0.0185,-0.0213,-0.0231,-0.0255,-0.0231,-0.0224,-0.0218,-0.0203,-0.0221,-0.0214,-0.0289,-0.0289,-0.0289,0,0,0.0063,0.0052,0.0057,0.0042,0.002,0.001,-0.0022,-0.0044,-0.0041,-0.0095,-0.0095,-0.0126,-0.0169,-0.0175,-0.0188,-0.0202,-0.021,-0.0216,-0.0211,-0.0199,-0.0219,-0.0212,-0.0205,-0.0289,-0.0289,-0.0289,0,0,0.0087,0.0088,0.0092,0.0082,0.0046,0.0026,0.0017,-0.0017,-0.0018,-0.0033,-0.0063,-0.0078,-0.0126,-0.0132,-0.015,-0.0129,-0.0176,-0.0148,-0.0089,-0.0107,-0.01,-0.0095,-0.0117,-0.0114,-0.0142,-0.0142,-0.0142,0,0.0098,0.0112,0.0091,0.0089,0.0086,0.0033,0.0036,0.0024,-0.0007,0.0007,-0.0023,-0.0057,-0.0098,-0.0092,-0.0079,-0.0111,-0.0134,-0.0114,-0.0096,-0.0091,-0.0087,-0.0111,-0.0109,-0.0137,-0.0138,-0.0138,-0.0139,0,0.0117,0.0131,0.013,0.0121,0.0121,0.0112,0.0087,0.0095,0.0074,0.0067,0.007,0.0024,0.0011,-0.0007,-0.0041,-0.0026,-0.0056,-0.0086,-0.0111,-0.0074,-0.0102,-0.0102,-0.0131,-0.0133,-0.0134,-0.0135,0,0,0.0126,0.014,0.0139,0.0161,0.0139,0.0145,0.0158,0.0168,0.0204,0.0163,0.0207,0.0156,0.0132,0.0111,0.0068,0.0053,0.0055,0.0001,-0.0003,-0.0011,0.0012,-0.0025,-0.0029,0.0025,0.0026,0.0026,-0.0019,0,0.0139,0.0165,0.0167,0.0204,0.0215,0.0212,0.0249,0.0261,0.0263,0.0297,0.0247,0.0253,0.0173,0.0172,0.0143,0.0085,0.006,0.007,-0.0031,-0.0034,-0.0063,-0.0028,-0.002,-0.006,-0.0019,-0.0019,-0.0019,0,0.0158,0.0172,0.021,0.0282,0.0288,0.0309,0.0383,0.0407,0.0437,0.0445,0.0432,0.0389,0.0359,0.0282,0.0192,0.0199,0.0112,0.0057,0.0053,-0.0008,-0.007,-0.0092,-0.0062,-0.0019,-0.0019,-0.0019,-0.0019,0,0.0192,0.0221,0.0264,0.0277,0.0327,0.037,0.0401,0.0455,0.0518,0.0532,0.0574,0.0511,0.0495,0.0382,0.0241,0.0219,0.0142,0.0095,-0.0022,-0.0026,-0.0051,-0.0058,0.003,0.003,0.003,0.003,0.003,0,0.0233,0.0269,0.0286,0.031,0.0397,0.0415,0.0521,0.056,0.0629,0.0711,0.0642,0.0679,0.0519,0.0446,0.0295,0.0144,0.0173,0.0002,-0.0033,-0.0022,-0.0026,-0.0018,-0.0023,0.0028,0.0029,0.0029,0.0029,0,0.0286,0.0294,0.0347,0.0389,0.0422,0.0483,0.0605,0.0691,0.0733,0.0836,0.0842,0.0819,0.0712,0.0544,0.0376,0.0228,0.0078,0.0009,0.003,-0.0003,-0.0093,-0.0093,-0.0113,-0.0114,-0.0116,-0.0117,-0.0118,0,0.0322,0.0344,0.04,0.0462,0.0488,0.0579,0.0671,0.0739,0.0835,0.0917,0.098,0.0914,0.0869,0.0615,0.0351,0.0095,0.0065,-0.0061,-0.0106,-0.0072,-0.0105,-0.0103,-0.0101,-0.0107,-0.0108,-0.0108,-0.0109,0,0.0373,0.0382,0.0432,0.055,0.0643,0.075,0.0868,0.0958,0.104,0.1103,0.117,0.1133,0.089,0.0639,0.0298,0.0117,-0.002,-0.0083,-0.0037,-0.0075,-0.0071,-0.0102,-0.0099,-0.0114,-0.0114,-0.0113,-0.0113,-0.0113,0.0413,0.0467,0.0539,0.0669,0.0776,0.0914,0.1009,0.1115,0.1238,0.1336,0.1296,0.1245,0.0961,0.0525,0.0222,-0.008,-0.007,-0.0179,-0.0175,-0.017,-0.0164,-0.0163,-0.0223,-0.0223,-0.0223,-0.0223,-0.0223,0,0.0478,0.0555,0.0668,0.0814,0.0936,0.0977,0.115,0.123,0.1341,0.1411,0.1424,0.1161,0.0865,0.0555,0.0098,-0.0186,-0.0207,-0.0269,-0.0227,-0.022,-0.0214,-0.0208,-0.028,-0.0281,-0.0281,-0.0282,0,0,0.0523,0.0647,0.0714,0.0928,0.1026,0.1178,0.1265,0.1365,0.1445,0.1493,0.1466,0.1376,0.0982,0.0644,0.0253,-0.0001,-0.0043,-0.0059,0.0014,0.0115,0.0125,-0.014,-0.0122,0,0,0,0,0]}],[{"header":{"parameterUnit":"m.s-1","parameterCategory":2,"la1":30.2991,"la2":30.254,"lo1":-89.0895,"lo2":-89.0444,"dy":0.0017,"dx":0.0017,"nx":28,"ny":28,"refTime":"2025-04-11T03:00:00:Z","depth":"4","parameterNumber":2,"parameterNumberName":"U-component_of_CURRENTS"},"data":[0,0,0,0,0,0,0,0,0,0,0,0,0,0,0,0,0,0,0,0,0,0,0,0,0,0,0,0,0,0,0,0,0,0,0,0,0,0,0,0,0,0,0,0,0,0,0,0,0,0,0,0,0,0,0,0,0,0,0.0168,0.0167,0,0.0058,0.0057,0.0056,0.0016,0.0016,0.0017,0.0017,-0.0082,-0.0084,-0.0087,0,0,0,0,0,0,0,0,0,0,0,0,0,0.0157,0.0159,0.0168,0.0167,0.0165,0.0058,0.0057,0.0056,0.0016,0.0016,0.0017,0.0017,-0.0081,-0.0084,-0.0087,0,0,0,0,0,0,0,0,0,0,0,0,0,0.0119,0.0159,0.0169,0.0131,0.0126,0.0058,0.0057,0.0055,0.0016,0.0016,0.0017,0.0017,-0.008,-0.0084,-0.0088,-0.0118,0,0,-0.01,-0.0102,0,0,0,0,0,0,0,0,0.0121,0.012,0.0138,0.0133,0.0128,0.0049,0.0016,-0.0003,0.0016,0.0061,0.0017,0.0017,-0.0039,-0.0046,-0.0064,-0.0122,-0.0127,-0.0101,-0.0103,-0.0105,-0.0106,0,0,0,0,0,0,0,0.0124,0.0123,0.0127,0.0136,0.013,0.0054,0.0051,0.0012,0.0013,0.0057,0.0053,0.0036,-0.0041,-0.006,-0.0066,-0.0128,-0.0101,-0.0104,-0.0107,-0.0108,-0.0145,-0.0143,0,0,0,0,0,0,0.0143,0.0127,0.0131,0.0124,0.0122,0.0055,0.0051,0.0076,0.0013,0.0003,0.0036,0.0035,-0.0053,-0.0062,-0.007,-0.0027,-0.0105,-0.0109,-0.0111,-0.0146,-0.0144,-0.0143,0,0,0,0,0,0,0.0143,0.0146,0.0135,0.0117,0.0111,0.0056,0.0083,0.0074,0.0061,-0.0003,-0.0012,0.0034,-0.0053,-0.0064,-0.0077,-0.0034,-0.0111,-0.0114,-0.0148,-0.0145,-0.0143,0.0006,0,0,0,0,0,0,0.0144,0.0148,0.0191,0.0121,0.0112,0.0096,0.0082,0.0071,0.0049,0.0046,-0.0008,-0.0018,-0.0054,-0.007,-0.0081,-0.0041,-0.0118,-0.015,-0.0147,-0.0144,-0.0001,0.0013,0.0025,0,0,0,0,0,0.0145,0.0163,0.0195,0.0196,0.017,0.0095,0.0084,0.0045,0.0049,0.0038,0.0026,-0.0016,-0.0059,-0.0072,-0.0085,-0.0046,-0.0151,-0.0148,-0.0144,-0.0006,0.0011,0.0025,0,0,0,0,0,0,0.0202,0.0159,0.0192,0.0211,0.0172,0.0088,0.0069,0.0053,0.0033,0.0046,-0.0003,-0.0013,-0.0018,-0.0052,-0.0065,-0.0048,-0.011,-0.0109,-0.0001,0.0014,0.0027,0.0088,-0.0121,0,0,0,0,0,0.0238,0.0257,0.0195,0.0238,0.0195,0.0147,0.0121,0.0101,0.0061,0.0052,0.0032,0.0012,-0.0017,-0.0015,-0.0057,-0.0041,-0.005,-0.0024,-0.001,0.0001,0.0042,0.0079,0.0101,-0.0131,-0.0131,-0.0131,0,0,0.0274,0.0269,0.0279,0.0253,0.0214,0.0175,0.0131,0.0091,0.01,0.0045,0.0068,0.0039,-0.0012,0.0003,0.0001,-0.0011,0.0056,0.0005,0.0016,0.0051,0.0086,0.0109,0.0129,-0.0129,-0.0129,-0.013,0,0,0.0296,0.0342,0.0316,0.0291,0.0242,0.0214,0.0206,0.0141,0.0141,0.0152,0.0121,0.014,0.0094,0.0098,0.0082,0.0143,0.0102,0.0119,0.0263,0.0299,0.0319,0.0337,0.0335,0.0352,0.0153,0.0154,0.0154,0,0.0354,0.034,0.0301,0.0267,0.0271,0.0234,0.0211,0.0195,0.0167,0.0187,0.0177,0.0172,0.0147,0.0172,0.0227,0.0176,0.0181,0.0209,0.032,0.0338,0.0354,0.0348,0.0364,0.0161,0.016,0.0159,0.0159,0,0.0303,0.0333,0.0309,0.0292,0.0288,0.0269,0.0239,0.0259,0.028,0.028,0.0311,0.0299,0.0319,0.0309,0.0304,0.0402,0.036,0.0312,0.029,0.0387,0.0372,0.0387,0.0172,0.0169,0.0167,0.0165,0,0,0.0379,0.0284,0.0304,0.0318,0.0312,0.0304,0.0334,0.0339,0.0384,0.0392,0.0453,0.0469,0.05,0.049,0.0479,0.0546,0.0676,0.0526,0.0524,0.0542,0.0749,0.0744,0.0758,0.0661,0.0665,0.0668,0.0687,0,0.0376,0.0311,0.0296,0.0339,0.0305,0.0341,0.0394,0.043,0.0453,0.0507,0.0515,0.0569,0.0548,0.0612,0.0668,0.0663,0.0727,0.0675,0.0638,0.0637,0.0637,0.078,0.0681,0.0698,0.0701,0.0703,0.0705,0,0.0369,0.0326,0.0313,0.0376,0.0373,0.0433,0.0547,0.0599,0.0653,0.0667,0.0719,0.0719,0.0825,0.0796,0.0863,0.0837,0.0843,0.0827,0.0826,0.0791,0.0663,0.0582,0.0731,0.0729,0.0727,0.0725,0.0723,0,0.0445,0.0403,0.0413,0.0424,0.0442,0.0519,0.0597,0.0675,0.0744,0.0824,0.0855,0.0912,0.0981,0.0996,0.1003,0.0964,0.1047,0.0956,0.0931,0.0926,0.0852,0.0832,0.1029,0.1029,0.1029,0.1029,0.1029,0,0.0495,0.0521,0.0454,0.0475,0.0546,0.061,0.0779,0.0797,0.0914,0.1007,0.0995,0.1044,0.1057,0.1081,0.1056,0.1061,0.1087,0.1009,0.0966,0.0906,0.0893,0.086,0.084,0.1029,0.1029,0.1029,0.1029,0,0.0571,0.0544,0.0548,0.0557,0.0586,0.0677,0.0876,0.0962,0.1064,0.1177,0.1227,0.1211,0.1253,0.1204,0.1229,0.1145,0.1133,0.112,0.1074,0.1017,0.096,0.0947,0.1093,0.1094,0.1094,0.1095,0.1095,0,0.0565,0.0565,0.0577,0.0612,0.063,0.0784,0.0879,0.1026,0.1103,0.1268,0.1271,0.1365,0.1349,0.1314,0.1288,0.1223,0.1192,0.1157,0.1077,0.1042,0.0984,0.097,0.0956,0.1096,0.1096,0.1097,0.1097,0,0.0492,0.0531,0.0532,0.064,0.0739,0.0819,0.0963,0.1017,0.1212,0.1282,0.134,0.1363,0.1378,0.1333,0.1308,0.1247,0.1168,0.1162,0.1158,0.1083,0.1046,0.0986,0.0972,0.1099,0.1099,0.1099,0.1098,0,0.0454,0.0458,0.0532,0.0653,0.0761,0.0822,0.0908,0.1018,0.1145,0.1277,0.1325,0.1359,0.1425,0.135,0.1326,0.1284,0.1231,0.1146,0.1142,0.1139,0.1142,0.1102,0.1193,0,0,0,0,0,0.0354,0.042,0.0517,0.0661,0.0779,0.0852,0.0929,0.1013,0.117,0.1192,0.1278,0.1303,0.1312,0.13,0.1253,0.1297,0.1202,0.1235,0.1094,0.1112,0.1109,0.1106,0,0,0,0,0,0,0.035,0.0398,0.0501,0.0659,0.0762,0.0888,0.0931,0.1003,0.1023,0.1152,0.1131,0.1255,0.1225,0.1348,0.1246,0.1246,0.1134,0.1275,0.1272,0.1113,0.1111,0.1109,0.1105,0,0,0,0,0]},{"header":{"parameterUnit":"m.s-1","parameterCategory":2,"la1":30.2991,"la2":30.254,"lo1":-89.0895,"lo2":-89.0444,"dy":0.0017,"dx":0.0017,"nx":28,"ny":28,"refTime":"2025-04-11T03:00:00:Z","depth":"4","parameterNumber":3,"parameterNumberName":"V-component_of_CURRENTS"},"data":[0,0,0,0,0,0,0,0,0,0,0,0,0,0,0,0,0,0,0,0,0,0,0,0,0,0,0,0,0,0,0,0,0,0,0,0,0,0,0,0,0,0,0,0,0,0,0,0,0,0,0,0,0,0,0,0,0,0,0.045,0.0449,0,0.0415,0.0415,0.0415,0.046,0.0461,0.0462,0.0463,0.0427,0.0425,0.0423,0,0,0,0,0,0,0,0,0,0,0,0,0,0.0473,0.0473,0.045,0.0449,0.0448,0.0415,0.0415,0.0415,0.046,0.0461,0.0462,0.0463,0.0428,0.0425,0.0423,0,0,0,0,0,0,0,0,0,0,0,0,0,0.0461,0.0474,0.045,0.046,0.046,0.0415,0.0415,0.0416,0.046,0.0461,0.0462,0.0464,0.0428,0.0426,0.0423,0.038,0,0,0.0415,0.0414,0,0,0,0,0,0,0,0,0.0461,0.0461,0.046,0.0459,0.0459,0.0436,0.041,0.0401,0.0459,0.0468,0.0463,0.0464,0.0424,0.0421,0.0423,0.0378,0.0377,0.0415,0.0413,0.0412,0.0411,0,0,0,0,0,0,0,0.0462,0.0462,0.0444,0.0458,0.0457,0.0437,0.0439,0.0408,0.0445,0.0468,0.0469,0.0452,0.0425,0.0426,0.0423,0.0376,0.0415,0.0412,0.0411,0.041,0.0303,0.0302,0,0,0,0,0,0,0.0453,0.0463,0.0445,0.0442,0.0454,0.0435,0.0437,0.0449,0.0446,0.0444,0.045,0.0454,0.043,0.0426,0.0422,0.0387,0.0412,0.0409,0.0408,0.0304,0.0303,0.0301,0,0,0,0,0,0,0.0455,0.0453,0.0447,0.0444,0.0441,0.0433,0.0446,0.0447,0.0475,0.0431,0.0432,0.0478,0.0431,0.0425,0.0395,0.0386,0.0408,0.0406,0.0306,0.0304,0.0302,0.0307,0,0,0,0,0,0,0.0456,0.0455,0.0462,0.0444,0.044,0.043,0.0444,0.0445,0.0456,0.0461,0.0454,0.0451,0.0431,0.0399,0.0392,0.0382,0.0404,0.0307,0.0305,0.0303,0.0308,0.0306,0.0303,0,0,0,0,0,0.0457,0.0472,0.0464,0.0461,0.0452,0.0429,0.0427,0.043,0.0456,0.0463,0.0449,0.0453,0.038,0.0396,0.0388,0.0377,0.0308,0.0305,0.0303,0.031,0.0306,0.0303,0,0,0,0,0,0,0.0481,0.0476,0.0468,0.0479,0.0453,0.0434,0.0431,0.0443,0.0441,0.046,0.0434,0.0428,0.04,0.0382,0.04,0.0337,0.0345,0.0341,0.0353,0.035,0.0347,0.0357,0.0401,0,0,0,0,0,0.0485,0.0503,0.0474,0.0479,0.0466,0.0454,0.0448,0.0462,0.0449,0.0455,0.0439,0.0416,0.0376,0.0361,0.0331,0.0295,0.0258,0.0282,0.0279,0.0277,0.0279,0.0186,0.0175,0.0292,0.0292,0.0292,0,0,0.048,0.0489,0.0488,0.0484,0.0466,0.0454,0.0458,0.0466,0.0459,0.0446,0.0436,0.0412,0.0365,0.0324,0.031,0.0312,0.0227,0.0274,0.0273,0.0275,0.0182,0.0171,0.016,0.029,0.0291,0.0291,0,0,0.0483,0.0497,0.0503,0.0497,0.0487,0.0476,0.0484,0.0477,0.0474,0.0451,0.0436,0.0391,0.0355,0.0299,0.0268,0.0227,0.0219,0.0242,0.0234,0.0144,0.0133,0.0124,0.0076,0.0062,0.0237,0.0237,0.0237,0,0.0477,0.05,0.0494,0.0504,0.0503,0.0489,0.0495,0.0472,0.046,0.0437,0.0452,0.036,0.0326,0.0241,0.0238,0.0219,0.0197,0.0253,0.014,0.013,0.012,0.0073,0.0058,0.0237,0.0237,0.0237,0.0237,0,0.048,0.0503,0.0506,0.0515,0.051,0.0523,0.0487,0.0477,0.0475,0.0443,0.038,0.032,0.0273,0.0244,0.0234,0.0151,0.0169,0.0151,0.0152,0.0109,0.0062,0.0046,0.0237,0.0237,0.0237,0.0237,0,0,0.0473,0.0502,0.0515,0.0535,0.0539,0.0546,0.0507,0.0462,0.0437,0.0395,0.0342,0.0258,0.0253,0.0217,0.0189,0.0103,0.0017,0.0121,0.0116,0.0082,-0.0136,-0.007,-0.0081,-0.0003,-0.0006,-0.0009,-0.0134,0,0.048,0.0522,0.0536,0.0568,0.0574,0.0565,0.0537,0.05,0.044,0.0378,0.0283,0.0245,0.0233,0.0239,0.0142,0.0056,-0.0025,0.0056,-0.0095,-0.0099,-0.0031,-0.0099,-0.0019,-0.0147,-0.015,-0.0153,-0.0155,0,0.0482,0.0522,0.0573,0.0613,0.0617,0.0662,0.0633,0.0608,0.0486,0.0426,0.034,0.0287,0.0181,0.0177,-0.0014,0.0055,-0.0025,-0.0113,-0.0121,-0.0072,-0.0065,-0.01,-0.0184,-0.0182,-0.018,-0.0178,-0.0176,0,0.0495,0.055,0.0613,0.0632,0.0663,0.0715,0.0745,0.0659,0.0613,0.0498,0.0422,0.0298,0.0247,0.0108,-0.0016,-0.0009,-0.0236,-0.0264,-0.0298,-0.0293,-0.0314,-0.0302,-0.0421,-0.0421,-0.0421,-0.042,-0.042,0,0.0511,0.0561,0.0664,0.0707,0.0798,0.0815,0.0871,0.0815,0.073,0.065,0.051,0.0401,0.0231,0.009,-0.0028,-0.0187,-0.0241,-0.031,-0.0335,-0.0306,-0.0292,-0.0324,-0.0311,-0.0425,-0.0424,-0.0423,-0.0422,0,0.052,0.0575,0.0644,0.0751,0.0816,0.0902,0.1,0.0976,0.0888,0.0768,0.0744,0.0491,0.0309,0.0129,-0.0102,-0.019,-0.0354,-0.0395,-0.0316,-0.0331,-0.0354,-0.034,-0.0481,-0.048,-0.0479,-0.0479,-0.0478,0,0.0523,0.0574,0.0706,0.0767,0.0861,0.1005,0.1067,0.1072,0.1001,0.0807,0.0704,0.0529,0.0361,0.007,-0.0102,-0.0324,-0.0352,-0.0416,-0.0429,-0.0357,-0.0368,-0.0354,-0.0341,-0.0477,-0.0476,-0.0476,-0.0476,0,0.0528,0.059,0.066,0.079,0.092,0.1004,0.1094,0.1064,0.0997,0.0913,0.0684,0.0522,0.0291,0.0079,-0.0063,-0.0234,-0.0367,-0.0409,-0.0413,-0.0427,-0.0353,-0.0361,-0.035,-0.0473,-0.0474,-0.0474,-0.0474,0,0.0544,0.0588,0.0682,0.0799,0.0907,0.0946,0.1029,0.0995,0.0973,0.0763,0.0721,0.0471,0.0358,0.0123,-0.0025,-0.0156,-0.0221,-0.0264,-0.0277,-0.0282,-0.0175,-0.005,-0.0112,0,0,0,0,0,0.0539,0.0586,0.0666,0.0778,0.0855,0.0925,0.0967,0.1007,0.0982,0.0834,0.078,0.0581,0.0325,0.0181,0.0055,-0.0038,-0.0251,-0.019,-0.0307,-0.0457,-0.0461,-0.0362,0,0,0,0,0,0,0.0538,0.0619,0.0648,0.0714,0.0772,0.0871,0.0904,0.0901,0.0812,0.0759,0.0621,0.0564,0.0308,0.0404,0.0054,0.0006,-0.0081,-0.0309,-0.0312,-0.0456,-0.0459,-0.0461,-0.0361,0,0,0,0,0]}]]